COSMOS 2251 DEB, 34412

Orbit data source: Space-Track

COSMOS 2251 DEB, 34412 is space debris in LEO originally from a launch on Wed, 16 Jun 1993 UTC launched from the Plesetsk Missile And Space Complex (PKMTR). The debris from Iridium 33, an American commercial communications satellite, has been tracked extensively since its accidental collision with the defunct Russian satellite Cosmos 2251 in 2009. This event, occurring at high speed in low Earth orbit (LEO), generated thousands of pieces of space debris, significantly increasing the risk of further collisions. The Iridium 33 debris cloud has impacted space traffic management and orbital debris mitigation strategies, making it a subject of ongoing study in space situational awareness.

Loading next visibility...
Identifier
34412, 1993-036RD
Orbit
LEO
Country
Flag of CISCIS
Related business
Manufacturer
Unknown
Mission
Spacecraft
Bus & Motor
Unknown
Mass
Unknown
Launch date (UTC)
1993-06-16 (33 years ago)
Launch vehicle
Unknown
Launch site
Plesetsk Missile And Space Complex (PKMTR)
Object type
Payload
Rocket body
Debris
Shape & HBR
Unknown shape, 0.1 m
Radar Cross Section
Medium (>0.1 m² and <1 m²)

Expand to show TLE details & history
Last TLE update: 2 days ago

TLE from 2 days ago
0 COSMOS 2251 DEB
1 34412U 93036RD  26235.32569095  .00001757  00000-0  37621-3 0  9994
2 34412  73.9452 206.7007 0187124 245.5734 112.5804 14.49212863913229
Epoch: 2026-08-23T07:48Z
TLE epoch observation values (Epoch: 2026-08-23T07:48:59.698Z)
Latitude
0.00004°
Longitude
117.82861°
Altitude
784.01 km
Speed
7.434 km/s
True Right ascension
13h 46m 48s
True Declination
0° 00' 00"
Sunlit
Object was in daylight at epoch
Visualization orbit readout
Latitude
Unknown
Longitude
Unknown
Altitude
Unknown
Speed
Unknown
Apparent Right ascension
Unknown
Apparent Declination
Unknown
Sunlit
N/A
Visualization observer readout
Local Sidereal Time
17:06:10
Azimuth
Unknown
Elevation
Unknown
Doppler factor
Unknown
Orbital elements
Apogee altitude
858.769 km
Perigee altitude
592.904 km
Semi-major axis
7,103.974 km
Eccentricity
0.01871
Inclination
73.9452°
RAAN
206.7007°
Arg. of periapsis
245.5734°
True anomaly
114.54229°
Mean anomaly
112.5804°
Eccentric anomaly
113.56315°
Mean motion
3.62486 °/min
Orbital period
99.31 mins
BSTAR
0.00037621
Loading maneuver chart data...
Computing Atmospheric mass density...

Documentation

Showing up to 5 results
|